Location: Tamazert
(32.6352°N, 5.2072°W)
Time: 04:26:19
(UTC+00:00)

Vanguard 2 Rocket - Pass Details

Date: 08 October 2022
Orbit: 555 x 3321 km, 32.9° (Epoch: 04 December)

Event Time Altitude Azimuth Distance (km) Brightness Sun altitude
Rises 01:20:15 0° 279° (W) 6,271 - -58.4°
Reaches altitude 10° 01:25:04 10° 279° (W) 4,836 - -57.8°
Maximum altitude 01:37:28 80° 195° (SSW) 1,439 - -56.1°
Drops below altitude 10° 01:44:11 10° 109° (ESE) 2,744 - -55.1°
Sets 01:46:13 0° 108° (ESE) 3,467 - -54.8°
